Location: Newark
(50.0306°N, 2.3272°E)
Time: 04:18:21
(UTC+00:00)

Vanguard 1 Rocket - Pass Details

Date: 17 December 2019
Orbit: 650 x 4226 km, 34.3° (Epoch: 17 January)

Event Time Altitude Azimuth Distance (km) Brightness Sun altitude
Rises 17:36:03 0° 215° (SW) 8,457 13.2 -16.0°
Reaches altitude 10° 17:43:08 10° 207° (SSW) 7,383 12.6 -17.1°
Maximum altitude 18:02:43 32° 155° (SSE) 4,825 10.9 -20.2°
Enters shadow 18:12:53 19° 111° (ESE) 4,808 10.6 -21.8°
Drops below altitude 10° 18:16:11 10° 100° (E) 5,143 - -22.3°
Sets 18:19:56 0° 91° (E) 5,703 - -22.9°
